owner,sensor,date,latitude,longitude,vertical_datum,wind_speed,wind_to_direction,wind_speed_of_gust,qcFlag 
WAVCIS,ioos:station:WAVCIS:CSI06:1,2019-06-01T00:00:00Z,28.8667,-90.4833,10.0,3.1,180.0,4.1,'11111222,11111222,11111222' 
WAVCIS,ioos:station:WAVCIS:CSI06:1,2019-06-01T01:00:00Z,28.8667,-90.4833,10.0,1.5,190.0,2.1,'11111222,11111222,11111222' 
WAVCIS,ioos:station:WAVCIS:CSI06:1,2019-06-01T02:00:00Z,28.8667,-90.4833,10.0,2.6,220.0,2.6,'11111222,11111222,11111222' 
WAVCIS,ioos:station:WAVCIS:CSI06:1,2019-06-01T03:00:00Z,28.8667,-90.4833,10.0,2.1,220.0,2.6,'11111222,11111222,11111222' 
WAVCIS,ioos:station:WAVCIS:CSI06:1,2019-06-01T04:00:00Z,28.8667,-90.4833,10.0,4.1,160.0,4.6,'11111222,11111222,11111222' 
WAVCIS,ioos:station:WAVCIS:CSI06:1,2019-06-01T05:00:00Z,28.8667,-90.4833,10.0,4.1,180.0,4.6,'11111222,11111222,11111222' 
WAVCIS,ioos:station:WAVCIS:CSI06:1,2019-06-01T06:00:00Z,28.8667,-90.4833,10.0,4.1,190.0,5.1,'11111222,11111222,11111222' 
WAVCIS,ioos:station:WAVCIS:CSI06:1,2019-06-01T07:00:00Z,28.8667,-90.4833,10.0,3.6,210.0,4.1,'11111222,11111222,11111222' 
WAVCIS,ioos:station:WAVCIS:CSI06:1,2019-06-01T08:00:00Z,28.8667,-90.4833,10.0,3.6,210.0,4.6,'11111222,11111222,11111222' 
WAVCIS,ioos:station:WAVCIS:CSI06:1,2019-06-01T09:00:00Z,28.8667,-90.4833,10.0,3.6,220.0,4.1,'11111222,11111222,11111222' 
WAVCIS,ioos:station:WAVCIS:CSI06:1,2019-06-01T10:00:00Z,28.8667,-90.4833,10.0,3.6,250.0,3.6,'11111222,11111222,11111222' 
WAVCIS,ioos:station:WAVCIS:CSI06:1,2019-06-01T11:00:00Z,28.8667,-90.4833,10.0,3.6,290.0,4.6,'11111222,11111222,11111222' 
WAVCIS,ioos:station:WAVCIS:CSI06:1,2019-06-01T12:00:00Z,28.8667,-90.4833,10.0,3.6,310.0,5.7,'11111222,11111222,11111222' 
WAVCIS,ioos:station:WAVCIS:CSI06:1,2019-06-01T13:00:00Z,28.8667,-90.4833,10.0,3.1,320.0,3.6,'11111222,11111222,11111222' 
WAVCIS,ioos:station:WAVCIS:CSI06:1,2019-06-01T14:00:00Z,28.8667,-90.4833,10.0,2.1,310.0,3.1,'11111222,11111222,11111222' 
WAVCIS,ioos:station:WAVCIS:CSI06:1,2019-06-01T15:00:00Z,28.8667,-90.4833,10.0,2.6,310.0,3.1,'11111222,11111222,11111222' 
WAVCIS,ioos:station:WAVCIS:CSI06:1,2019-06-01T16:00:00Z,28.8667,-90.4833,10.0,1.5,10.0,2.6,'11111222,11111222,11111222' 
WAVCIS,ioos:station:WAVCIS:CSI06:1,2019-06-01T17:00:00Z,28.8667,-90.4833,10.0,1.0,320.0,2.1,'11111222,11111222,11111222' 
WAVCIS,ioos:station:WAVCIS:CSI06:1,2019-06-01T18:00:00Z,28.8667,-90.4833,10.0,1.0,300.0,2.1,'11111222,11111222,11111222' 
WAVCIS,ioos:station:WAVCIS:CSI06:1,2019-06-01T19:00:00Z,28.8667,-90.4833,10.0,1.0,240.0,2.1,'11111222,11111222,11111222' 
WAVCIS,ioos:station:WAVCIS:CSI06:1,2019-06-01T20:00:00Z,28.8667,-90.4833,10.0,2.1,250.0,3.1,'11111222,11111222,11111222' 
WAVCIS,ioos:station:WAVCIS:CSI06:1,2019-06-01T21:00:00Z,28.8667,-90.4833,10.0,3.6,250.0,4.6,'11111222,11111222,11111222' 
WAVCIS,ioos:station:WAVCIS:CSI06:1,2019-06-01T22:00:00Z,28.8667,-90.4833,10.0,4.1,240.0,5.1,'11111222,11111222,11111222' 
WAVCIS,ioos:station:WAVCIS:CSI06:1,2019-06-01T23:00:00Z,28.8667,-90.4833,10.0,4.6,240.0,6.2,'11111222,11111222,11111222' 
WAVCIS,ioos:station:WAVCIS:CSI06:1,2019-06-02T00:00:00Z,28.8667,-90.4833,10.0,4.6,240.0,5.7,'11111222,11111222,11111222' 
WAVCIS,ioos:station:WAVCIS:CSI06:1,2019-06-02T01:00:00Z,28.8667,-90.4833,10.0,4.6,240.0,5.7,'11111222,11111222,11111222' 
WAVCIS,ioos:station:WAVCIS:CSI06:1,2019-06-02T02:00:00Z,28.8667,-90.4833,10.0,5.1,230.0,6.2,'11111222,11111222,11111222' 
WAVCIS,ioos:station:WAVCIS:CSI06:1,2019-06-02T03:00:00Z,28.8667,-90.4833,10.0,4.6,230.0,5.1,'11111222,11111222,11111222' 
WAVCIS,ioos:station:WAVCIS:CSI06:1,2019-06-02T04:00:00Z,28.8667,-90.4833,10.0,5.1,230.0,6.2,'11111222,11111222,11111222' 
WAVCIS,ioos:station:WAVCIS:CSI06:1,2019-06-02T05:00:00Z,28.8667,-90.4833,10.0,5.1,240.0,5.7,'11111222,11111222,11111222' 
WAVCIS,ioos:station:WAVCIS:CSI06:1,2019-06-02T06:00:00Z,28.8667,-90.4833,10.0,4.6,240.0,5.7,'11111222,11111222,11111222' 
WAVCIS,ioos:station:WAVCIS:CSI06:1,2019-06-02T07:00:00Z,28.8667,-90.4833,10.0,5.1,240.0,5.7,'11111222,11111222,11111222' 
WAVCIS,ioos:station:WAVCIS:CSI06:1,2019-06-02T08:00:00Z,28.8667,-90.4833,10.0,5.1,240.0,5.7,'11111222,11111222,11111222' 
WAVCIS,ioos:station:WAVCIS:CSI06:1,2019-06-02T09:00:00Z,28.8667,-90.4833,10.0,5.1,250.0,6.2,'11111222,11111222,11111222' 
WAVCIS,ioos:station:WAVCIS:CSI06:1,2019-06-02T10:00:00Z,28.8667,-90.4833,10.0,5.1,260.0,6.7,'11111222,11111222,11111222' 
WAVCIS,ioos:station:WAVCIS:CSI06:1,2019-06-02T11:00:00Z,28.8667,-90.4833,10.0,5.1,250.0,6.2,'11111222,11111222,11111222' 
WAVCIS,ioos:station:WAVCIS:CSI06:1,2019-06-02T12:00:00Z,28.8667,-90.4833,10.0,6.2,300.0,7.2,'11111222,11111222,11111222' 
WAVCIS,ioos:station:WAVCIS:CSI06:1,2019-06-02T13:00:00Z,28.8667,-90.4833,10.0,4.1,270.0,5.1,'11111222,11111222,11111222' 
WAVCIS,ioos:station:WAVCIS:CSI06:1,2019-06-02T14:00:00Z,28.8667,-90.4833,10.0,5.1,300.0,5.7,'11111222,11111222,11111222' 
WAVCIS,ioos:station:WAVCIS:CSI06:1,2019-06-02T15:00:00Z,28.8667,-90.4833,10.0,4.6,300.0,5.7,'11111222,11111222,11111222' 
WAVCIS,ioos:station:WAVCIS:CSI06:1,2019-06-02T16:00:00Z,28.8667,-90.4833,10.0,5.1,290.0,6.2,'11111222,11111222,11111222' 
WAVCIS,ioos:station:WAVCIS:CSI06:1,2019-06-02T17:00:00Z,28.8667,-90.4833,10.0,5.1,320.0,5.7,'11111222,11111222,11111222' 
WAVCIS,ioos:station:WAVCIS:CSI06:1,2019-06-02T18:00:00Z,28.8667,-90.4833,10.0,3.6,290.0,4.6,'11111222,11111222,11111222' 
WAVCIS,ioos:station:WAVCIS:CSI06:1,2019-06-02T19:00:00Z,28.8667,-90.4833,10.0,4.1,280.0,4.6,'11111222,11111222,11111222' 
WAVCIS,ioos:station:WAVCIS:CSI06:1,2019-06-02T20:00:00Z,28.8667,-90.4833,10.0,3.6,280.0,4.6,'11111222,11111222,11111222' 
WAVCIS,ioos:station:WAVCIS:CSI06:1,2019-06-02T21:00:00Z,28.8667,-90.4833,10.0,3.6,270.0,4.6,'11111222,11111222,11111222' 
WAVCIS,ioos:station:WAVCIS:CSI06:1,2019-06-02T22:00:00Z,28.8667,-90.4833,10.0,3.6,270.0,4.6,'11111222,11111222,11111222' 
WAVCIS,ioos:station:WAVCIS:CSI06:1,2019-06-02T23:00:00Z,28.8667,-90.4833,10.0,2.6,270.0,3.6,'11111222,11111222,11111222' 
WAVCIS,ioos:station:WAVCIS:CSI06:1,2019-06-03T00:00:00Z,28.8667,-90.4833,10.0,11.3,30.0,13.4,'11111222,11111222,11111222' 
WAVCIS,ioos:station:WAVCIS:CSI06:1,2019-06-03T01:00:00Z,28.8667,-90.4833,10.0,3.1,340.0,4.1,'11111222,11111222,11111222' 
WAVCIS,ioos:station:WAVCIS:CSI06:1,2019-06-03T02:00:00Z,28.8667,-90.4833,10.0,1.0,250.0,1.5,'11111222,11111222,11111222' 
WAVCIS,ioos:station:WAVCIS:CSI06:1,2019-06-03T03:00:00Z,28.8667,-90.4833,10.0,2.6,260.0,3.6,'11111222,11111222,11111222' 
WAVCIS,ioos:station:WAVCIS:CSI06:1,2019-06-03T04:00:00Z,28.8667,-90.4833,10.0,2.6,250.0,3.1,'11111222,11111222,11111222' 
WAVCIS,ioos:station:WAVCIS:CSI06:1,2019-06-03T05:00:00Z,28.8667,-90.4833,10.0,2.6,210.0,3.1,'11111222,11111222,11111222' 
WAVCIS,ioos:station:WAVCIS:CSI06:1,2019-06-03T06:00:00Z,28.8667,-90.4833,10.0,3.1,240.0,3.6,'11111222,11111222,11111222' 
WAVCIS,ioos:station:WAVCIS:CSI06:1,2019-06-03T07:00:00Z,28.8667,-90.4833,10.0,4.6,240.0,5.1,'11111222,11111222,11111222' 
WAVCIS,ioos:station:WAVCIS:CSI06:1,2019-06-03T08:00:00Z,28.8667,-90.4833,10.0,4.6,250.0,5.1,'11111222,11111222,11111222' 
WAVCIS,ioos:station:WAVCIS:CSI06:1,2019-06-03T09:00:00Z,28.8667,-90.4833,10.0,3.1,290.0,3.6,'11111222,11111222,11111222' 
WAVCIS,ioos:station:WAVCIS:CSI06:1,2019-06-03T10:00:00Z,28.8667,-90.4833,10.0,3.1,290.0,4.1,'11111222,11111222,11111222' 
WAVCIS,ioos:station:WAVCIS:CSI06:1,2019-06-03T11:00:00Z,28.8667,-90.4833,10.0,4.6,310.0,5.1,'11111222,11111222,11111222' 
WAVCIS,ioos:station:WAVCIS:CSI06:1,2019-06-03T12:00:00Z,28.8667,-90.4833,10.0,4.6,350.0,5.7,'11111222,11111222,11111222' 
WAVCIS,ioos:station:WAVCIS:CSI06:1,2019-06-03T13:00:00Z,28.8667,-90.4833,10.0,4.1,230.0,5.1,'11111222,11111222,11111222' 
WAVCIS,ioos:station:WAVCIS:CSI06:1,2019-06-03T14:00:00Z,28.8667,-90.4833,10.0,1.0,310.0,1.5,'11111222,11111222,11111222' 
WAVCIS,ioos:station:WAVCIS:CSI06:1,2019-06-03T15:00:00Z,28.8667,-90.4833,10.0,4.6,80.0,6.2,'11111222,11111222,11111222' 
WAVCIS,ioos:station:WAVCIS:CSI06:1,2019-06-03T16:00:00Z,28.8667,-90.4833,10.0,2.1,70.0,2.6,'11111222,11111222,11111222' 
WAVCIS,ioos:station:WAVCIS:CSI06:1,2019-06-03T17:00:00Z,28.8667,-90.4833,10.0,1.5,120.0,2.1,'11111222,11111222,11111222' 
WAVCIS,ioos:station:WAVCIS:CSI06:1,2019-06-03T18:00:00Z,28.8667,-90.4833,10.0,1.0,160.0,1.5,'11111222,11111222,11111222' 
WAVCIS,ioos:station:WAVCIS:CSI06:1,2019-06-10T14:00:00Z,28.8667,-90.4833,10.0,8.2,20.0,9.3,'11111222,11111222,11111222' 
WAVCIS,ioos:station:WAVCIS:CSI06:1,2019-06-10T15:00:00Z,28.8667,-90.4833,10.0,5.1,10.0,6.7,'11111222,11111222,11111222' 
WAVCIS,ioos:station:WAVCIS:CSI06:1,2019-06-10T16:00:00Z,28.8667,-90.4833,10.0,3.6,350.0,6.7,'11111222,11111222,11111222' 
WAVCIS,ioos:station:WAVCIS:CSI06:1,2019-06-10T17:00:00Z,28.8667,-90.4833,10.0,4.6,350.0,7.2,'11111222,11111222,11111222' 
WAVCIS,ioos:station:WAVCIS:CSI06:1,2019-06-10T18:00:00Z,28.8667,-90.4833,10.0,4.6,340.0,6.7,'11111222,11111222,11111222' 
WAVCIS,ioos:station:WAVCIS:CSI06:1,2019-06-10T19:00:00Z,28.8667,-90.4833,10.0,4.1,360.0,6.2,'11111222,11144222,11111222' 
WAVCIS,ioos:station:WAVCIS:CSI06:1,2019-06-10T20:00:00Z,28.8667,-90.4833,10.0,5.1,10.0,7.2,'11111222,11111222,11111222' 
WAVCIS,ioos:station:WAVCIS:CSI06:1,2019-06-10T22:00:00Z,28.8667,-90.4833,10.0,5.7,20.0,6.7,'11111222,11111222,11111222' 
WAVCIS,ioos:station:WAVCIS:CSI06:1,2019-06-10T23:00:00Z,28.8667,-90.4833,10.0,4.1,20.0,5.7,'11111222,11111222,11111222' 
WAVCIS,ioos:station:WAVCIS:CSI06:1,2019-06-11T00:00:00Z,28.8667,-90.4833,10.0,4.6,20.0,5.1,'11111222,11111222,11111222' 
WAVCIS,ioos:station:WAVCIS:CSI06:1,2019-06-11T01:00:00Z,28.8667,-90.4833,10.0,5.1,20.0,6.2,'11111222,11111222,11111222' 
WAVCIS,ioos:station:WAVCIS:CSI06:1,2019-06-11T02:00:00Z,28.8667,-90.4833,10.0,5.1,20.0,6.7,'11111222,11111222,11111222' 
WAVCIS,ioos:station:WAVCIS:CSI06:1,2019-06-11T03:00:00Z,28.8667,-90.4833,10.0,4.6,10.0,5.7,'11111222,11111222,11111222' 
WAVCIS,ioos:station:WAVCIS:CSI06:1,2019-06-11T04:00:00Z,28.8667,-90.4833,10.0,6.2,360.0,10.8,'11111222,11144222,11111222' 
WAVCIS,ioos:station:WAVCIS:CSI06:1,2019-06-11T05:00:00Z,28.8667,-90.4833,10.0,11.3,10.0,15.4,'11111222,11111222,11111222' 
WAVCIS,ioos:station:WAVCIS:CSI06:1,2019-06-11T06:00:00Z,28.8667,-90.4833,10.0,13.4,10.0,15.4,'11111222,11111222,11111222' 
WAVCIS,ioos:station:WAVCIS:CSI06:1,2019-06-11T07:00:00Z,28.8667,-90.4833,10.0,12.9,20.0,14.9,'11111222,11111222,11111222' 
WAVCIS,ioos:station:WAVCIS:CSI06:1,2019-06-11T08:00:00Z,28.8667,-90.4833,10.0,13.4,20.0,14.4,'11111222,11111222,11111222' 
WAVCIS,ioos:station:WAVCIS:CSI06:1,2019-06-11T09:00:00Z,28.8667,-90.4833,10.0,11.3,30.0,12.9,'11111222,11111222,11111222' 
WAVCIS,ioos:station:WAVCIS:CSI06:1,2019-06-11T10:00:00Z,28.8667,-90.4833,10.0,9.3,40.0,12.9,'11111222,11111222,11111222' 
WAVCIS,ioos:station:WAVCIS:CSI06:1,2019-06-11T11:00:00Z,28.8667,-90.4833,10.0,10.3,30.0,12.4,'11111222,11111222,11111222' 
WAVCIS,ioos:station:WAVCIS:CSI06:1,2019-06-11T12:00:00Z,28.8667,-90.4833,10.0,7.7,40.0,10.8,'11111222,11111222,11111222' 
WAVCIS,ioos:station:WAVCIS:CSI06:1,2019-06-11T13:00:00Z,28.8667,-90.4833,10.0,6.7,40.0,9.3,'11111222,11111222,11111222' 
WAVCIS,ioos:station:WAVCIS:CSI06:1,2019-06-11T14:00:00Z,28.8667,-90.4833,10.0,6.7,50.0,8.8,'11111222,11111222,11111222' 
WAVCIS,ioos:station:WAVCIS:CSI06:1,2019-06-11T15:00:00Z,28.8667,-90.4833,10.0,7.2,60.0,8.8,'11111222,11111222,11111222' 
WAVCIS,ioos:station:WAVCIS:CSI06:1,2019-06-11T16:00:00Z,28.8667,-90.4833,10.0,5.1,50.0,7.2,'11111222,11111222,11111222' 
WAVCIS,ioos:station:WAVCIS:CSI06:1,2019-06-11T17:00:00Z,28.8667,-90.4833,10.0,5.7,70.0,7.7,'11111222,11111222,11111222' 
WAVCIS,ioos:station:WAVCIS:CSI06:1,2019-06-11T20:00:00Z,28.8667,-90.4833,10.0,3.1,90.0,4.1,'11111222,11111222,11111222' 
WAVCIS,ioos:station:WAVCIS:CSI06:1,2019-06-11T21:00:00Z,28.8667,-90.4833,10.0,1.5,50.0,3.1,'11111222,11111222,11111222' 
WAVCIS,ioos:station:WAVCIS:CSI06:1,2019-06-11T22:00:00Z,28.8667,-90.4833,10.0,1.5,100.0,2.6,'11111222,11111222,11111222' 
WAVCIS,ioos:station:WAVCIS:CSI06:1,2019-06-11T23:00:00Z,28.8667,-90.4833,10.0,0.0,-9999.0,1.0,'11111222,11111222,11111222' 
WAVCIS,ioos:station:WAVCIS:CSI06:1,2019-06-12T00:00:00Z,28.8667,-90.4833,10.0,2.1,300.0,2.6,'11111222,11111222,11111222' 
WAVCIS,ioos:station:WAVCIS:CSI06:1,2019-06-12T01:00:00Z,28.8667,-90.4833,10.0,3.6,320.0,4.6,'11111222,11111222,11111222' 
WAVCIS,ioos:station:WAVCIS:CSI06:1,2019-06-12T02:00:00Z,28.8667,-90.4833,10.0,4.6,310.0,5.7,'11111222,11111222,11111222' 
WAVCIS,ioos:station:WAVCIS:CSI06:1,2019-06-12T03:00:00Z,28.8667,-90.4833,10.0,4.1,300.0,5.1,'11111222,11111222,11111222' 
WAVCIS,ioos:station:WAVCIS:CSI06:1,2019-06-12T04:00:00Z,28.8667,-90.4833,10.0,4.6,300.0,6.2,'11111222,11111222,11111222' 
WAVCIS,ioos:station:WAVCIS:CSI06:1,2019-06-12T05:00:00Z,28.8667,-90.4833,10.0,1.0,350.0,2.6,'11111222,11111222,11111222' 
WAVCIS,ioos:station:WAVCIS:CSI06:1,2019-06-12T06:00:00Z,28.8667,-90.4833,10.0,1.5,80.0,2.1,'11111222,11111222,11111222' 
WAVCIS,ioos:station:WAVCIS:CSI06:1,2019-06-12T07:00:00Z,28.8667,-90.4833,10.0,3.1,140.0,5.7,'11111222,11111222,11111222' 
WAVCIS,ioos:station:WAVCIS:CSI06:1,2019-06-12T08:00:00Z,28.8667,-90.4833,10.0,3.1,170.0,4.1,'11111222,11111222,11111222' 
WAVCIS,ioos:station:WAVCIS:CSI06:1,2019-06-12T09:00:00Z,28.8667,-90.4833,10.0,3.6,30.0,5.7,'11111222,11111222,11111222' 
WAVCIS,ioos:station:WAVCIS:CSI06:1,2019-06-12T10:00:00Z,28.8667,-90.4833,10.0,1.0,330.0,2.1,'11111222,11111222,11111222' 
WAVCIS,ioos:station:WAVCIS:CSI06:1,2019-06-12T11:00:00Z,28.8667,-90.4833,10.0,0.0,-9999.0,1.5,'11111222,11111222,11111222' 
WAVCIS,ioos:station:WAVCIS:CSI06:1,2019-06-12T12:00:00Z,28.8667,-90.4833,10.0,1.0,30.0,2.1,'11111222,11111222,11111222' 
WAVCIS,ioos:station:WAVCIS:CSI06:1,2019-06-12T13:00:00Z,28.8667,-90.4833,10.0,2.1,20.0,3.1,'11111222,11111222,11111222' 
WAVCIS,ioos:station:WAVCIS:CSI06:1,2019-06-12T14:00:00Z,28.8667,-90.4833,10.0,0.0,-9999.0,1.0,'11111222,11111222,11111222' 
WAVCIS,ioos:station:WAVCIS:CSI06:1,2019-06-12T15:00:00Z,28.8667,-90.4833,10.0,2.1,300.0,3.1,'11111222,11111222,11111222' 
WAVCIS,ioos:station:WAVCIS:CSI06:1,2019-06-12T16:00:00Z,28.8667,-90.4833,10.0,2.6,290.0,3.1,'11111222,11111222,11111222' 
WAVCIS,ioos:station:WAVCIS:CSI06:1,2019-06-12T17:00:00Z,28.8667,-90.4833,10.0,3.1,340.0,4.6,'11111222,11111222,11111222' 
WAVCIS,ioos:station:WAVCIS:CSI06:1,2019-06-12T18:00:00Z,28.8667,-90.4833,10.0,2.6,320.0,3.1,'11111222,11111222,11111222' 
WAVCIS,ioos:station:WAVCIS:CSI06:1,2019-06-12T19:00:00Z,28.8667,-90.4833,10.0,3.1,330.0,4.6,'11111222,11111222,11111222' 
WAVCIS,ioos:station:WAVCIS:CSI06:1,2019-06-12T20:00:00Z,28.8667,-90.4833,10.0,6.2,320.0,7.7,'11111222,11111222,11111222' 
WAVCIS,ioos:station:WAVCIS:CSI06:1,2019-06-12T21:00:00Z,28.8667,-90.4833,10.0,6.7,310.0,8.8,'11111222,11111222,11111222' 
WAVCIS,ioos:station:WAVCIS:CSI06:1,2019-06-12T22:00:00Z,28.8667,-90.4833,10.0,6.2,290.0,7.2,'11111222,11111222,11111222' 
WAVCIS,ioos:station:WAVCIS:CSI06:1,2019-06-12T23:00:00Z,28.8667,-90.4833,10.0,5.7,290.0,6.7,'11111222,11111222,11111222' 
WAVCIS,ioos:station:WAVCIS:CSI06:1,2019-06-13T00:00:00Z,28.8667,-90.4833,10.0,5.1,280.0,5.7,'11111222,11111222,11111222' 
WAVCIS,ioos:station:WAVCIS:CSI06:1,2019-06-13T01:00:00Z,28.8667,-90.4833,10.0,3.6,240.0,4.6,'11111222,11111222,11111222' 
WAVCIS,ioos:station:WAVCIS:CSI06:1,2019-06-13T02:00:00Z,28.8667,-90.4833,10.0,5.1,290.0,6.2,'11111222,11111222,11111222' 
WAVCIS,ioos:station:WAVCIS:CSI06:1,2019-06-13T03:00:00Z,28.8667,-90.4833,10.0,6.7,310.0,7.7,'11111222,11111222,11111222' 
WAVCIS,ioos:station:WAVCIS:CSI06:1,2019-06-13T05:00:00Z,28.8667,-90.4833,10.0,5.1,340.0,6.7,'11111222,11111222,11111222' 
WAVCIS,ioos:station:WAVCIS:CSI06:1,2019-06-13T06:00:00Z,28.8667,-90.4833,10.0,3.1,360.0,4.6,'11111222,11144222,11111222' 
WAVCIS,ioos:station:WAVCIS:CSI06:1,2019-06-13T07:00:00Z,28.8667,-90.4833,10.0,4.1,10.0,5.1,'11111222,11111222,11111222' 
WAVCIS,ioos:station:WAVCIS:CSI06:1,2019-06-13T08:00:00Z,28.8667,-90.4833,10.0,2.1,10.0,3.6,'11111222,11111222,11111222' 
WAVCIS,ioos:station:WAVCIS:CSI06:1,2019-06-13T09:00:00Z,28.8667,-90.4833,10.0,1.5,360.0,3.1,'11111222,11144222,11111222' 
WAVCIS,ioos:station:WAVCIS:CSI06:1,2019-06-13T10:00:00Z,28.8667,-90.4833,10.0,3.6,340.0,4.6,'11111222,11111222,11111222' 
WAVCIS,ioos:station:WAVCIS:CSI06:1,2019-06-13T11:00:00Z,28.8667,-90.4833,10.0,3.1,360.0,4.6,'11111222,11144222,11111222' 
WAVCIS,ioos:station:WAVCIS:CSI06:1,2019-06-13T12:00:00Z,28.8667,-90.4833,10.0,3.6,10.0,5.7,'11111222,11111222,11111222' 
WAVCIS,ioos:station:WAVCIS:CSI06:1,2019-06-13T13:00:00Z,28.8667,-90.4833,10.0,4.1,10.0,5.1,'11111222,11111222,11111222' 
WAVCIS,ioos:station:WAVCIS:CSI06:1,2019-06-13T14:00:00Z,28.8667,-90.4833,10.0,5.7,10.0,6.2,'11111222,11111222,11111222' 
WAVCIS,ioos:station:WAVCIS:CSI06:1,2019-06-13T15:00:00Z,28.8667,-90.4833,10.0,5.1,10.0,6.7,'11111222,11111222,11111222' 
WAVCIS,ioos:station:WAVCIS:CSI06:1,2019-06-13T16:00:00Z,28.8667,-90.4833,10.0,5.1,20.0,5.7,'11111222,11111222,11111222' 
WAVCIS,ioos:station:WAVCIS:CSI06:1,2019-06-13T17:00:00Z,28.8667,-90.4833,10.0,5.1,20.0,6.2,'11111222,11111222,11111222' 
WAVCIS,ioos:station:WAVCIS:CSI06:1,2019-06-13T18:00:00Z,28.8667,-90.4833,10.0,3.1,20.0,4.6,'11111222,11111222,11111222' 
WAVCIS,ioos:station:WAVCIS:CSI06:1,2019-06-13T19:00:00Z,28.8667,-90.4833,10.0,2.6,30.0,4.1,'11111222,11111222,11111222' 
WAVCIS,ioos:station:WAVCIS:CSI06:1,2019-06-13T20:00:00Z,28.8667,-90.4833,10.0,1.0,30.0,3.6,'11111222,11111222,11111222' 
WAVCIS,ioos:station:WAVCIS:CSI06:1,2019-06-13T21:00:00Z,28.8667,-90.4833,10.0,4.1,100.0,5.7,'11111222,11111222,11111222' 
WAVCIS,ioos:station:WAVCIS:CSI06:1,2019-06-13T22:00:00Z,28.8667,-90.4833,10.0,4.1,110.0,4.6,'11111222,11111222,11111222' 
WAVCIS,ioos:station:WAVCIS:CSI06:1,2019-06-13T23:00:00Z,28.8667,-90.4833,10.0,4.1,120.0,4.6,'11111222,11111222,11111222' 
WAVCIS,ioos:station:WAVCIS:CSI06:1,2019-06-14T00:00:00Z,28.8667,-90.4833,10.0,3.1,120.0,3.6,'11111222,11111222,11111222' 
WAVCIS,ioos:station:WAVCIS:CSI06:1,2019-06-14T01:00:00Z,28.8667,-90.4833,10.0,2.1,110.0,3.6,'11111222,11111222,11111222' 
WAVCIS,ioos:station:WAVCIS:CSI06:1,2019-06-14T02:00:00Z,28.8667,-90.4833,10.0,2.6,110.0,3.1,'11111222,11111222,11111222' 
WAVCIS,ioos:station:WAVCIS:CSI06:1,2019-06-14T03:00:00Z,28.8667,-90.4833,10.0,1.5,130.0,2.1,'11111222,11111222,11111222' 
WAVCIS,ioos:station:WAVCIS:CSI06:1,2019-06-14T04:00:00Z,28.8667,-90.4833,10.0,2.1,140.0,2.6,'11111222,11111222,11111222' 
WAVCIS,ioos:station:WAVCIS:CSI06:1,2019-06-14T05:00:00Z,28.8667,-90.4833,10.0,2.6,120.0,3.6,'11111222,11111222,11111222' 
WAVCIS,ioos:station:WAVCIS:CSI06:1,2019-06-14T06:00:00Z,28.8667,-90.4833,10.0,2.6,140.0,3.6,'11111222,11111222,11111222' 
WAVCIS,ioos:station:WAVCIS:CSI06:1,2019-06-14T07:00:00Z,28.8667,-90.4833,10.0,3.1,150.0,4.1,'11111222,11111222,11111222' 
WAVCIS,ioos:station:WAVCIS:CSI06:1,2019-06-14T08:00:00Z,28.8667,-90.4833,10.0,3.1,130.0,4.1,'11111222,11111222,11111222' 
WAVCIS,ioos:station:WAVCIS:CSI06:1,2019-06-14T09:00:00Z,28.8667,-90.4833,10.0,3.1,130.0,4.1,'11111222,11111222,11111222' 
WAVCIS,ioos:station:WAVCIS:CSI06:1,2019-06-14T10:00:00Z,28.8667,-90.4833,10.0,2.6,110.0,3.6,'11111222,11111222,11111222' 
WAVCIS,ioos:station:WAVCIS:CSI06:1,2019-06-14T11:00:00Z,28.8667,-90.4833,10.0,1.5,80.0,2.1,'11111222,11111222,11111222' 
WAVCIS,ioos:station:WAVCIS:CSI06:1,2019-06-14T12:00:00Z,28.8667,-90.4833,10.0,3.6,60.0,4.6,'11111222,11111222,11111222' 
WAVCIS,ioos:station:WAVCIS:CSI06:1,2019-06-14T13:00:00Z,28.8667,-90.4833,10.0,5.7,80.0,6.7,'11111222,11111222,11111222' 
WAVCIS,ioos:station:WAVCIS:CSI06:1,2019-06-14T14:00:00Z,28.8667,-90.4833,10.0,6.2,80.0,7.2,'11111222,11111222,11111222' 
WAVCIS,ioos:station:WAVCIS:CSI06:1,2019-06-14T15:00:00Z,28.8667,-90.4833,10.0,5.7,90.0,6.7,'11111222,11111222,11111222' 
WAVCIS,ioos:station:WAVCIS:CSI06:1,2019-06-14T16:00:00Z,28.8667,-90.4833,10.0,5.7,90.0,6.7,'11111222,11111222,11111222' 
WAVCIS,ioos:station:WAVCIS:CSI06:1,2019-06-14T17:00:00Z,28.8667,-90.4833,10.0,6.2,80.0,7.2,'11111222,11111222,11111222' 
WAVCIS,ioos:station:WAVCIS:CSI06:1,2019-06-14T18:00:00Z,28.8667,-90.4833,10.0,7.2,90.0,8.8,'11111222,11111222,11111222' 
WAVCIS,ioos:station:WAVCIS:CSI06:1,2019-06-14T19:00:00Z,28.8667,-90.4833,10.0,7.7,100.0,8.8,'11111222,11111222,11111222' 
WAVCIS,ioos:station:WAVCIS:CSI06:1,2019-06-14T20:00:00Z,28.8667,-90.4833,10.0,7.7,110.0,8.8,'11111222,11111222,11111222' 
WAVCIS,ioos:station:WAVCIS:CSI06:1,2019-06-14T21:00:00Z,28.8667,-90.4833,10.0,7.2,120.0,8.8,'11111222,11111222,11111222' 
WAVCIS,ioos:station:WAVCIS:CSI06:1,2019-06-14T22:00:00Z,28.8667,-90.4833,10.0,7.2,120.0,8.2,'11111222,11111222,11111222' 
WAVCIS,ioos:station:WAVCIS:CSI06:1,2019-06-14T23:00:00Z,28.8667,-90.4833,10.0,7.2,120.0,8.2,'11111222,11111222,11111222' 
WAVCIS,ioos:station:WAVCIS:CSI06:1,2019-06-15T00:00:00Z,28.8667,-90.4833,10.0,6.7,120.0,8.2,'11111222,11111222,11111222' 
WAVCIS,ioos:station:WAVCIS:CSI06:1,2019-06-15T01:00:00Z,28.8667,-90.4833,10.0,7.2,130.0,7.7,'11111222,11111222,11111222' 
WAVCIS,ioos:station:WAVCIS:CSI06:1,2019-06-15T02:00:00Z,28.8667,-90.4833,10.0,7.7,140.0,8.8,'11111222,11111222,11111222' 
WAVCIS,ioos:station:WAVCIS:CSI06:1,2019-06-15T03:00:00Z,28.8667,-90.4833,10.0,7.7,140.0,9.3,'11111222,11111222,11111222' 
WAVCIS,ioos:station:WAVCIS:CSI06:1,2019-06-15T04:00:00Z,28.8667,-90.4833,10.0,8.2,140.0,9.3,'11111222,11111222,11111222' 
WAVCIS,ioos:station:WAVCIS:CSI06:1,2019-06-15T05:00:00Z,28.8667,-90.4833,10.0,7.2,140.0,7.7,'11111222,11111222,11111222' 
WAVCIS,ioos:station:WAVCIS:CSI06:1,2019-06-15T06:00:00Z,28.8667,-90.4833,10.0,7.7,150.0,8.2,'11111222,11111222,11111222' 
WAVCIS,ioos:station:WAVCIS:CSI06:1,2019-06-15T07:00:00Z,28.8667,-90.4833,10.0,7.2,160.0,8.2,'11111222,11111222,11111222' 
WAVCIS,ioos:station:WAVCIS:CSI06:1,2019-06-15T08:00:00Z,28.8667,-90.4833,10.0,7.2,160.0,8.8,'11111222,11111222,11111222' 
WAVCIS,ioos:station:WAVCIS:CSI06:1,2019-06-15T09:00:00Z,28.8667,-90.4833,10.0,6.2,170.0,7.2,'11111222,11111222,11111222' 
WAVCIS,ioos:station:WAVCIS:CSI06:1,2019-06-15T10:00:00Z,28.8667,-90.4833,10.0,6.2,170.0,7.2,'11111222,11111222,11111222' 
WAVCIS,ioos:station:WAVCIS:CSI06:1,2019-06-15T11:00:00Z,28.8667,-90.4833,10.0,6.2,170.0,7.2,'11111222,11111222,11111222' 
WAVCIS,ioos:station:WAVCIS:CSI06:1,2019-06-15T12:00:00Z,28.8667,-90.4833,10.0,6.2,170.0,7.2,'11111222,11111222,11111222' 
WAVCIS,ioos:station:WAVCIS:CSI06:1,2019-06-17T14:00:00Z,28.8667,-90.4833,10.0,6.7,160.0,7.7,'11111222,11111222,11111222' 
WAVCIS,ioos:station:WAVCIS:CSI06:1,2019-06-17T15:00:00Z,28.8667,-90.4833,10.0,7.2,160.0,8.2,'11111222,11111222,11111222' 
WAVCIS,ioos:station:WAVCIS:CSI06:1,2019-06-17T16:00:00Z,28.8667,-90.4833,10.0,6.2,170.0,7.2,'11111222,11111222,11111222' 
WAVCIS,ioos:station:WAVCIS:CSI06:1,2019-06-17T17:00:00Z,28.8667,-90.4833,10.0,6.7,160.0,8.2,'11111222,11111222,11111222' 
WAVCIS,ioos:station:WAVCIS:CSI06:1,2019-06-17T18:00:00Z,28.8667,-90.4833,10.0,7.2,170.0,8.2,'11111222,11111222,11111222' 
WAVCIS,ioos:station:WAVCIS:CSI06:1,2019-06-17T20:00:00Z,28.8667,-90.4833,10.0,6.7,170.0,7.7,'11111222,11111222,11111222' 
WAVCIS,ioos:station:WAVCIS:CSI06:1,2019-06-17T21:00:00Z,28.8667,-90.4833,10.0,5.1,170.0,6.2,'11111222,11111222,11111222' 
WAVCIS,ioos:station:WAVCIS:CSI06:1,2019-06-17T22:00:00Z,28.8667,-90.4833,10.0,6.7,150.0,7.7,'11111222,11111222,11111222' 
WAVCIS,ioos:station:WAVCIS:CSI06:1,2019-06-17T23:00:00Z,28.8667,-90.4833,10.0,12.9,200.0,16.5,'11111222,11111222,11111222' 
WAVCIS,ioos:station:WAVCIS:CSI06:1,2019-06-18T00:00:00Z,28.8667,-90.4833,10.0,7.7,130.0,9.8,'11111222,11111222,11111222' 
WAVCIS,ioos:station:WAVCIS:CSI06:1,2019-06-18T01:00:00Z,28.8667,-90.4833,10.0,8.2,130.0,9.8,'11111222,11111222,11111222' 
WAVCIS,ioos:station:WAVCIS:CSI06:1,2019-06-18T02:00:00Z,28.8667,-90.4833,10.0,6.7,150.0,8.2,'11111222,11111222,11111222' 
WAVCIS,ioos:station:WAVCIS:CSI06:1,2019-06-18T03:00:00Z,28.8667,-90.4833,10.0,7.7,160.0,8.8,'11111222,11111222,11111222' 
WAVCIS,ioos:station:WAVCIS:CSI06:1,2019-06-18T04:00:00Z,28.8667,-90.4833,10.0,8.2,150.0,9.3,'11111222,11111222,11111222' 